Wind_Speed
39 41 42 43 45 46 47 49 52 55 56 56 55 55 55 52 53 53 55 51 43 40 41 42 39 38 37 33 31 30 27 23 22 22 19 18 16 18 14 13 14 15 21
45 47 47 48 50 52 54 56 58 61 62 63 61 61 59 56 54 55 54 55 52 46 43 44 43 43 40 39 36 33 31 28 25 23 21 19 18 17 16 14 16 14 12
49 51 52 54 55 57 58 61 63 65 66 66 66 64 60 56 56 55 56 56 57 52 48 46 48 46 40 47 40 37 35 33 28 27 24 21 20 18 17 17 17 18 16
54 55 56 57 59 61 64 67 69 70 70 68 64 63 59 58 57 57 56 56 56 58 55 51 48 49 47 49 46 42 43 40 36 29 28 26 21 21 20 22 21 23 22
57 57 57 60 63 66 70 71 72 72 69 64 63 61 60 59 58 57 58 57 57 57 57 57 55 52 52 51 49 42 55 53 40 35 30 29 26 23 24 24 26 26 27
58 58 61 65 68 69 68 68 66 64 62 59 56 56 57 58 57 56 56 58 57 57 59 60 59 58 56 56 54 54 55 39 49 40 35 32 31 27 27 27 28 28 30
59 63 67 69 68 67 64 60 59 61 65 63 61 58 58 58 57 56 56 54 55 56 57 58 61 61 61 60 60 62 54 52 47 39 41 36 34 34 29 31 30 31 30
64 66 67 65 64 61 58 62 60 59 61 62 61 61 59 53 53 52 51 51 51 51 53 55 58 60 62 64 66 67 63 53 52 50 52 42 38 37 35 34 34 31 30
66 67 65 63 60 59 58 60 62 64 64 65 65 64 61 58 51 48 48 49 50 50 52 55 57 59 58 64 69 70 69 64 64 59 45 49 45 42 40 38 38 36 34
65 63 62 59 58 59 60 64 65 66 65 63 58 58 58 56 52 47 44 46 48 49 53 56 58 60 61 61 67 73 74 73 74 66 57 62 53 48 46 43 42 41 38
63 63 60 61 61 61 63 65 66 64 60 58 55 54 52 52 53 52 47 46 47 49 50 53 56 61 64 66 66 69 75 78 80 71 74 60 56 57 55 50 47 45 43
62 60 60 61 61 64 66 66 63 60 57 54 52 53 54 54 55 56 54 50 49 49 49 50 51 52 59 67 71 73 74 78 82 77 74 70 69 59 58 56 52 50 48
61 60 60 62 63 65 66 63 60 56 55 55 56 57 59 61 62 63 62 57 54 52 52 53 53 53 54 58 67 76 78 80 81 84 83 76 69 67 60 59 56 55 52
60 59 61 62 64 63 60 58 56 58 61 63 65 66 67 68 68 68 68 68 63 59 54 55 52 52 51 57 60 71 81 83 84 85 90 81 74 73 71 59 66 60 55
59 59 60 62 63 62 58 58 61 64 66 65 59 53 50 52 54 60 63 63 66 63 55 50 49 51 51 53 59 61 74 85 85 87 92 90 88 86 82 63 59 62 63
58 59 60 61 59 58 61 62 64 61 49 41 40 36 36 38 41 44 46 48 53 56 55 52 47 47 49 50 54 57 60 72 86 89 91 91 87 86 75 78 65 71 63
57 59 61 59 58 61 63 60 47 41 39 35 34 34 36 38 39 42 44 46 46 49 51 44 49 45 48 47 48 58 58 60 73 85 92 95 87 86 82 77 71 67 64
58 58 58 58 61 61 57 40 39 36 33 33 33 35 37 38 39 40 41 44 47 49 50 46 44 45 47 50 47 51 57 59 61 68 87 96 90 85 86 76 78 78 78
58 57 56 59 61 57 41 38 37 36 35 36 37 38 40 41 43 44 43 44 44 48 52 50 47 45 46 49 50 47 52 58 64 58 67 94 94 87 87 86 71 77 66
56 56 58 58 57 42 40 39 40 38 39 40 42 43 45 48 49 50 50 51 51 50 50 54 52 50 49 47 50 50 44 53 59 64 56 80 96 93 90 95 93 78 75
56 58 58 54 44 40 42 42 42 44 45 46 48 49 52 53 55 57 60 60 61 59 55 51 53 53 52 51 49 47 46 47 54 60 63 59 90 95 89 91 90 86 82
58 58 53 43 41 45 45 46 47 48 50 52 53 54 56 58 62 66 67 67 65 60 57 53 48 53 53 53 50 47 45 49 50 60 63 54 74 94 91 86 85 75 80
58 53 43 42 46 47 47 48 49 51 52 54 55 57 62 66 68 67 65 62 60 58 56 53 48 48 52 52 51 46 44 48 50 54 66 57 60 77 92 88 94 80 76
54 44 42 45 48 49 49 50 50 51 53 57 62 66 66 65 65 65 62 59 59 58 55 53 50 46 50 52 51 47 43 44 49 49 61 56 59 61 82 88 88 87 86
45 41 44 47 49 49 49 50 51 54 58 62 65 65 65 64 63 62 62 61 58 56 53 51 48 47 46 50 51 45 42 41 44 45 55 59 61 57 68 87 83 80 77
41 43 45 48 49 49 51 53 56 59 62 63 63 64 64 64 64 66 65 62 59 55 52 48 46 45 44 47 49 45 42 39 44 46 51 54 50 60 62 82 82 78 76
Wind_Direction
303 303 303 302 302 301 300 298 298 298 299 299 297 295 295 292 289 286 286 285 282 276 276 279 277 278 276 273 270 275 273 274 274 274 273 272 275 281 272 266 259 237 229
304 302 302 300 299 299 299 298 298 298 298 297 297 296 295 291 286 283 280 282 279 278 273 270 272 274 274 276 265 265 267 267 273 267 267 268 265 269 261 257 255 241 229
303 302 300 299 299 299 298 297 297 296 296 295 295 295 293 290 286 282 280 276 276 275 270 268 267 266 270 268 271 267 266 261 267 267 262 259 259 257 252 239 242 232 228
301 299 299 299 299 298 297 296 296 298 298 298 298 296 293 289 285 282 279 274 272 270 269 266 262 263 262 266 268 272 266 259 258 260 260 257 251 251 247 234 236 232 227
299 298 297 298 298 298 299 300 301 301 301 300 298 295 291 287 284 281 276 273 269 266 265 263 260 255 255 256 259 249 263 259 247 251 254 255 248 242 243 235 235 231 228
300 299 299 299 299 302 304 304 304 302 300 296 294 292 289 286 283 276 272 269 266 262 260 260 257 255 252 251 250 249 247 242 250 244 246 250 252 240 240 238 234 234 225
300 300 301 302 305 306 306 303 300 299 299 297 295 290 288 284 280 274 271 268 266 263 258 257 256 252 249 248 248 250 245 257 257 255 246 242 247 243 233 239 235 236 240
299 301 304 306 305 305 301 301 300 298 295 294 291 288 284 282 281 278 275 272 267 264 262 260 257 254 248 246 245 245 250 252 248 245 246 240 240 242 235 234 237 233 238
301 304 305 304 302 300 300 298 297 296 295 293 291 288 285 282 274 270 269 268 267 264 262 259 258 257 253 246 244 243 244 242 244 238 225 241 239 237 238 230 233 232 230
304 304 303 300 300 301 300 299 299 298 295 293 291 290 288 284 278 269 265 268 268 267 266 264 258 255 254 250 247 243 242 241 242 244 242 224 233 236 236 234 227 231 228
306 304 302 302 300 299 300 300 301 299 298 294 292 288 284 283 283 280 270 265 267 269 266 263 260 256 251 250 248 247 242 239 241 239 241 241 234 235 233 234 230 228 227
303 302 300 300 300 301 303 304 302 300 298 295 292 288 285 283 281 280 277 273 267 267 269 267 263 260 254 249 248 246 245 241 240 237 237 238 234 221 230 233 231 228 228
300 301 300 300 302 305 305 304 303 300 298 296 293 290 287 286 284 282 280 275 269 267 266 269 265 260 258 255 248 245 243 242 241 237 238 234 239 234 224 228 231 228 228
300 301 301 303 305 305 305 303 301 301 299 297 294 292 289 287 285 283 280 277 272 270 267 265 267 264 263 259 255 247 241 240 239 237 238 234 229 230 234 209 225 227 227
301 300 303 306 307 306 304 303 303 302 299 298 298 298 300 299 294 286 279 276 275 270 264 265 264 264 264 265 263 252 245 239 238 235 237 236 230 231 235 235 214 229 228
300 303 306 307 307 306 305 305 304 303 303 303 302 306 312 315 311 301 292 285 280 275 267 267 263 258 260 266 258 252 251 244 238 236 234 236 235 232 234 238 225 218 228
304 307 307 307 307 307 307 307 303 300 300 299 305 310 313 315 317 311 299 292 286 280 274 268 267 264 256 261 257 253 253 250 241 239 233 236 234 231 230 231 229 217 220
307 307 306 307 308 309 308 301 297 299 301 303 307 311 313 315 315 315 312 298 288 282 276 270 268 262 264 260 261 250 250 251 247 243 236 234 232 230 227 227 232 226 219
305 305 307 309 310 310 303 298 294 297 300 302 304 307 308 310 310 311 311 308 305 290 277 273 267 264 263 264 263 263 251 250 250 247 243 233 231 227 225 221 218 224 230
304 306 308 310 310 303 300 296 295 296 298 300 301 302 303 304 304 305 305 304 304 300 290 273 267 264 262 264 263 262 259 252 247 248 247 238 229 226 224 224 228 225 229
304 307 310 310 305 301 298 297 297 298 298 299 299 301 302 302 303 303 302 301 299 296 291 284 267 261 261 263 264 266 264 251 246 243 245 244 230 225 224 224 224 226 225
306 309 310 305 303 303 301 298 299 300 299 300 301 302 303 304 303 302 302 300 298 294 287 281 276 259 256 259 263 265 264 258 240 242 244 243 234 224 222 222 217 215 221
308 309 306 304 305 306 304 302 303 302 302 302 302 304 305 305 305 304 303 302 299 295 290 283 275 265 253 253 259 261 263 263 245 238 242 233 241 227 220 219 220 214 221
308 305 303 305 307 308 306 304 304 303 304 306 308 309 309 308 307 306 304 302 300 297 291 286 278 266 254 249 254 259 260 265 250 243 238 232 233 230 221 218 219 222 224
304 302 304 306 309 308 307 305 306 307 310 311 312 311 310 311 309 307 307 305 302 299 293 286 276 266 258 248 252 259 262 267 246 242 242 228 225 230 222 215 217 217 222
302 303 304 307 309 308 306 307 309 311 313 313 312 312 312 312 311 310 309 307 304 300 294 285 275 264 255 247 250 258 261 263 245 236 239 227 226 230 219 213 215 216 215
Height
5801 5798 5796 5793 5790 5787 5785 5782 5779 5776 5773 5772 5771 5769 5766 5764 5761 5760 5755 5758 5759 5761 5762 5760 5758 5756 5753 5754 5755 5756 5755 5755 5755 5755 5756 5756 5756 5756 5757 5756 5757 5758 5758
5792 5790 5787 5784 5781 5779 5776 5772 5769 5766 5763 5760 5756 5754 5753 5750 5747 5744 5744 5741 5745 5745 5746 5748 5748 5748 5748 5745 5746 5747 5748 5749 5749 5748 5749 5751 5752 5752 5753 5754 5753 5753 5754
5783 5780 5777 5773 5770 5767 5764 5760 5757 5754 5751 5748 5745 5742 5737 5735 5733 5731 5729 5729 5728 5730 5733 5733 5735 5737 5739 5740 5738 5739 5741 5742 5742 5743 5743 5743 5745 5747 5749 5750 5751 5751 5752
5773 5770 5766 5762 5758 5755 5751 5747 5743 5739 5736 5733 5730 5728 5724 5721 5718 5716 5715 5714 5714 5714 5715 5719 5722 5724 5727 5728 5731 5732 5731 5732 5733 5734 5736 5738 5737 5740 5742 5745 5747 5748 5749
5762 5758 5755 5750 5745 5741 5736 5731 5726 5723 5720 5716 5713 5710 5707 5705 5703 5701 5698 5697 5697 5699 5701 5701 5704 5708 5711 5715 5718 5715 5711 5718 5720 5725 5726 5728 5730 5732 5735 5738 5741 5743 5744
5749 5745 5740 5735 5729 5725 5719 5714 5711 5705 5702 5700 5697 5693 5688 5685 5687 5684 5682 5679 5679 5680 5681 5683 5686 5691 5696 5699 5701 5705 5695 5695 5707 5712 5715 5718 5722 5723 5727 5730 5733 5736 5738
5735 5730 5725 5720 5715 5711 5705 5700 5697 5692 5686 5683 5681 5678 5671 5667 5668 5666 5665 5663 5662 5661 5663 5664 5666 5671 5676 5681 5685 5685 5687 5692 5697 5703 5707 5706 5711 5715 5715 5722 5725 5728 5731
5723 5718 5712 5707 5702 5698 5692 5686 5681 5676 5670 5664 5661 5658 5658 5654 5648 5647 5647 5646 5645 5646 5645 5646 5648 5651 5655 5660 5664 5669 5673 5680 5684 5685 5689 5692 5699 5703 5705 5710 5715 5718 5722
5709 5703 5699 5693 5688 5684 5677 5671 5665 5659 5654 5646 5640 5637 5636 5636 5637 5635 5631 5629 5628 5628 5628 5630 5631 5633 5635 5638 5642 5649 5656 5663 5666 5667 5652 5677 5684 5690 5695 5697 5704 5709 5713
5696 5690 5684 5678 5674 5669 5663 5655 5649 5643 5637 5631 5626 5620 5615 5613 5614 5621 5623 5617 5614 5613 5611 5612 5613 5614 5615 5618 5622 5627 5634 5641 5645 5651 5651 5657 5670 5676 5682 5687 5690 5698 5703
5683 5677 5670 5664 5659 5653 5647 5640 5633 5625 5620 5616 5611 5607 5602 5598 5595 5596 5603 5603 5600 5596 5595 5594 5592 5592 5595 5598 5603 5608 5613 5620 5623 5635 5637 5640 5651 5655 5668 5673 5679 5685 5691
5668 5663 5656 5649 5644 5637 5630 5623 5616 5610 5604 5599 5595 5591 5587 5583 5579 5577 5578 5582 5583 5581 5577 5577 5576 5573 5573 5577 5581 5587 5592 5597 5602 5613 5621 5628 5625 5640 5646 5660 5666 5672 5679
5655 5648 5642 5635 5628 5622 5615 5607 5600 5595 5589 5584 5579 5574 5570 5565 5561 5556 5555 5560 5561 5563 5561 5558 5557 5557 5555 5555 5559 5563 5571 5576 5581 5589 5597 5609 5615 5620 5629 5641 5651 5659 5666
5642 5635 5628 5621 5614 5607 5600 5593 5586 5579 5573 5567 5561 5556 5551 5545 5541 5538 5534 5533 5538 5541 5542 5541 5538 5537 5537 5536 5537 5540 5546 5553 5562 5568 5571 5586 5597 5604 5612 5618 5637 5644 5653
5628 5623 5615 5607 5600 5594 5586 5580 5573 5565 5557 5549 5543 5537 5531 5526 5521 5518 5514 5512 5509 5515 5524 5523 5522 5520 5519 5519 5516 5518 5523 5530 5539 5548 5550 5561 5577 5585 5595 5598 5610 5628 5639
5615 5608 5601 5594 5586 5580 5573 5565 5556 5549 5541 5536 5532 5527 5521 5515 5509 5504 5500 5496 5493 5491 5498 5500 5504 5505 5503 5502 5500 5500 5504 5507 5515 5525 5531 5537 5552 5566 5576 5586 5595 5604 5623
5601 5595 5587 5580 5574 5567 5559 5549 5541 5536 5533 5527 5522 5517 5511 5506 5500 5495 5490 5485 5480 5476 5476 5488 5484 5486 5488 5486 5486 5484 5486 5488 5493 5499 5510 5515 5532 5547 5559 5570 5581 5593 5604
5586 5581 5575 5567 5561 5554 5545 5537 5531 5527 5523 5517 5512 5507 5502 5497 5491 5486 5480 5475 5470 5464 5461 5467 5468 5469 5469 5469 5468 5470 5469 5471 5476 5480 5486 5493 5508 5525 5539 5554 5564 5575 5586
5574 5568 5563 5554 5546 5539 5532 5527 5521 5517 5512 5507 5502 5497 5491 5486 5481 5476 5470 5465 5459 5453 5448 5449 5452 5452 5452 5450 5452 5452 5453 5455 5455 5461 5466 5474 5486 5504 5518 5531 5542 5555 5567
5561 5555 5549 5541 5534 5528 5523 5517 5511 5507 5501 5496 5490 5485 5479 5474 5468 5463 5457 5451 5446 5441 5434 5432 5434 5433 5434 5434 5433 5435 5439 5437 5439 5441 5448 5455 5464 5479 5496 5511 5523 5540 5552
5549 5542 5535 5528 5522 5519 5513 5507 5501 5496 5491 5485 5479 5473 5466 5459 5453 5447 5440 5434 5428 5423 5417 5414 5415 5414 5415 5415 5416 5417 5418 5421 5422 5426 5429 5433 5446 5462 5479 5493 5509 5524 5538
5536 5529 5521 5515 5512 5508 5502 5495 5490 5485 5478 5472 5466 5459 5452 5444 5437 5430 5422 5413 5405 5400 5397 5393 5394 5395 5396 5396 5397 5399 5401 5401 5408 5407 5409 5422 5423 5443 5460 5476 5494 5506 5522
5524 5515 5509 5505 5502 5497 5490 5484 5478 5472 5465 5457 5451 5444 5437 5427 5418 5410 5403 5395 5386 5380 5375 5372 5374 5375 5377 5378 5379 5383 5384 5384 5389 5392 5390 5408 5405 5425 5442 5456 5474 5488 5503
5511 5504 5499 5495 5489 5484 5479 5472 5466 5459 5452 5443 5435 5427 5418 5409 5400 5391 5384 5377 5369 5362 5357 5352 5351 5354 5357 5359 5361 5364 5367 5369 5371 5374 5373 5390 5392 5405 5419 5437 5453 5472 5486
5499 5494 5489 5484 5479 5472 5466 5460 5454 5447 5438 5429 5418 5408 5399 5391 5382 5372 5364 5357 5350 5343 5337 5333 5331 5333 5337 5340 5343 5347 5350 5353 5355 5359 5356 5371 5380 5386 5401 5422 5438 5453 5468
5490 5484 5479 5473 5467 5461 5454 5448 5441 5433 5425 5415 5404 5393 5382 5373 5363 5353 5344 5336 5329 5323 5317 5314 5312 5313 5318 5323 5326 5329 5333 5337 5338 5345 5342 5355 5366 5370 5385 5404 5423 5439 5455